"Period start","avg(HW err(1)/warn(2) (#))","avg(Visibility (m))","avg(Weather code (#))","avg(Precip intensity (mm/h))","min(HW err(1)/warn(2) (#))","max(HW err(1)/warn(2) (#))","std(HW err(1)/warn(2) (#))","med(HW err(1)/warn(2) (#))","min(Visibility (m))","max(Visibility (m))","std(Visibility (m))","med(Visibility (m))","min(Weather code (#))","max(Weather code (#))","std(Weather code (#))","med(Weather code (#))","min(Precip intensity (mm/h))","max(Precip intensity (mm/h))","std(Precip intensity (mm/h))","med(Precip intensity (mm/h))"
2016-07-19 00:00:00,0,34266,0,0.00,0,0,0,0,26461,46468,5192,33848,0,0,0,0,0.00,0.00,0.00,0.00
2016-07-19 00:10:00,0,38928,0,0.00,0,0,0,0,9427,50000,12663,44779,0,0,0,0,0.00,0.00,0.00,0.00
2016-07-19 00:20:00,0,42455,0,0.00,0,0,0,0,28354,50000,7629,45228,0,0,0,0,0.00,0.00,0.00,0.00
2016-07-19 00:30:00,0,41550,0,0.00,0,0,0,0,23842,50000,7898,44241,0,0,0,0,0.00,0.00,0.00,0.00
2016-07-19 00:40:00,0,30946,0,0.00,0,0,0,0,13021,47506,10022,29436,0,0,0,0,0.00,0.00,0.00,0.00
2016-07-19 00:50:00,0,33939,0,0.00,0,0,0,0,21115,45326,7923,31198,0,0,0,0,0.00,0.00,0.00,0.00
2016-07-19 01:00:00,0,42676,0,0.00,0,0,0,0,22948,50000,7677,43492,0,0,0,0,0.00,0.00,0.00,0.00
2016-07-19 01:10:00,0,31158,0,0.00,0,0,0,0,20970,50000,9399,27884,0,0,0,0,0.00,0.00,0.00,0.00
2016-07-19 01:20:00,0,30299,0,0.00,0,0,0,0,24708,39804,5053,29145,0,0,0,0,0.00,0.00,0.00,0.00
2016-07-19 01:30:00,0,42475,0,0.00,0,0,0,0,27938,50000,7212,43924,0,0,0,0,0.00,0.00,0.00,0.00
2016-07-19 01:40:00,0,33036,0,0.00,0,0,0,0,11111,43965,11219,37043,0,0,0,0,0.00,0.00,0.00,0.00
2016-07-19 01:50:00,0,40811,0,0.00,0,0,0,0,35064,50000,4326,39592,0,0,0,0,0.00,0.00,0.00,0.00
2016-07-19 02:00:00,0,44482,0,0.00,0,0,0,0,35845,50000,4783,43353,0,0,0,0,0.00,0.00,0.00,0.00
2016-07-19 02:10:00,0,45471,0,0.00,0,0,0,0,26165,50000,6699,47106,0,0,0,0,0.00,0.00,0.00,0.00
2016-07-19 02:20:00,0,42000,0,0.00,0,0,0,0,29594,50000,7354,45364,0,0,0,0,0.00,0.00,0.00,0.00
2016-07-19 02:30:00,0,38815,0,0.00,0,0,0,0,29608,50000,7181,38471,0,0,0,0,0.00,0.00,0.00,0.00
2016-07-19 02:40:00,0,45178,0,0.00,0,0,0,0,37377,50000,4220,45389,0,0,0,0,0.00,0.00,0.00,0.00
2016-07-19 02:50:00,0,49140,0,0.00,0,0,0,0,46935,50000,1212,50000,0,0,0,0,0.00,0.00,0.00,0.00
2016-07-19 03:00:00,0,46403,0,0.00,0,0,0,0,40172,50000,3989,47908,0,0,0,0,0.00,0.00,0.00,0.00
2016-07-19 03:10:00,0,41473,0,0.00,0,0,0,0,18119,50000,9864,44158,0,0,0,0,0.00,0.00,0.00,0.00
2016-07-19 03:20:00,0,44448,0,0.00,0,0,0,0,26821,50000,6775,47200,0,0,0,0,0.00,0.00,0.00,0.00
2016-07-19 03:30:00,0,45527,0,0.00,0,0,0,0,30568,50000,5965,49102,0,0,0,0,0.00,0.00,0.00,0.00
2016-07-19 03:40:00,0,44526,0,0.00,0,0,0,0,30092,50000,7140,48102,0,0,0,0,0.00,0.00,0.00,0.00
2016-07-19 03:50:00,0,37992,0,0.00,0,0,0,0,10410,50000,12670,41358,0,0,0,0,0.00,0.00,0.00,0.00
2016-07-19 04:00:00,0,44727,0,0.00,0,0,0,0,35907,50000,4848,45470,0,0,0,0,0.00,0.00,0.00,0.00
2016-07-19 04:10:00,0,45918,0,0.00,0,0,0,0,35041,50000,4866,47704,0,0,0,0,0.00,0.00,0.00,0.00
2016-07-19 04:20:00,0,43628,0,0.00,0,0,0,0,32338,50000,6001,45848,0,0,0,0,0.00,0.00,0.00,0.00
2016-07-19 04:30:00,0,46294,0,0.00,0,0,0,0,33868,50000,5092,48809,0,0,0,0,0.00,0.00,0.00,0.00
2016-07-19 04:40:00,0,41939,0,0.00,0,0,0,0,26247,50000,8923,45022,0,0,0,0,0.00,0.00,0.00,0.00
2016-07-19 04:50:00,0,31788,0,0.00,0,0,0,0,9278,46159,10894,35673,0,0,0,0,0.00,0.00,0.00,0.00
2016-07-19 05:00:00,0,46057,0,0.00,0,0,0,0,38753,50000,3662,46141,0,0,0,0,0.00,0.00,0.00,0.00
2016-07-19 05:10:00,0,45973,0,0.00,0,0,0,0,40825,50000,2934,46463,0,0,0,0,0.00,0.00,0.00,0.00
2016-07-19 05:20:00,0,49009,0,0.00,0,0,0,0,43862,50000,1830,50000,0,0,0,0,0.00,0.00,0.00,0.00
2016-07-19 05:30:00,0,46907,0,0.00,0,0,0,0,41304,50000,3046,47720,0,0,0,0,0.00,0.00,0.00,0.00
2016-07-19 05:40:00,0,45669,0,0.00,0,0,0,0,37794,50000,3731,46342,0,0,0,0,0.00,0.00,0.00,0.00
2016-07-19 05:50:00,0,47620,0,0.00,0,0,0,0,40240,50000,3288,49516,0,0,0,0,0.00,0.00,0.00,0.00
2016-07-19 06:00:00,0,45557,0,0.00,0,0,0,0,17625,50000,9521,50000,0,0,0,0,0.00,0.00,0.00,0.00
2016-07-19 06:10:00,0,35518,0,0.00,0,0,0,0,5005,50000,13789,39864,0,0,0,0,0.00,0.00,0.00,0.00
2016-07-19 06:20:00,0,49727,0,0.00,0,0,0,0,47569,50000,723,50000,0,0,0,0,0.00,0.00,0.00,0.00
2016-07-19 06:30:00,0,48942,0,0.00,0,0,0,0,41983,50000,2364,50000,0,0,0,0,0.00,0.00,0.00,0.00
2016-07-19 06:40:00,0,44989,0,0.00,0,0,0,0,13668,50000,10998,50000,0,0,0,0,0.00,0.00,0.00,0.00
2016-07-19 06:50:00,0,49883,0,0.00,0,0,0,0,48834,50000,350,50000,0,0,0,0,0.00,0.00,0.00,0.00
2016-07-19 07:00:00,0,50000,0,0.00,0,0,0,0,50000,50000,0,50000,0,0,0,0,0.00,0.00,0.00,0.00
2016-07-19 07:10:00,0,49621,0,0.00,0,0,0,0,48546,50000,583,50000,0,0,0,0,0.00,0.00,0.00,0.00
2016-07-19 07:20:00,0,48795,0,0.00,0,0,0,0,42423,50000,2504,50000,0,0,0,0,0.00,0.00,0.00,0.00
2016-07-19 07:30:00,0,49845,0,0.00,0,0,0,0,48451,50000,465,50000,0,0,0,0,0.00,0.00,0.00,0.00
2016-07-19 07:40:00,0,49808,0,0.00,0,0,0,0,48077,50000,577,50000,0,0,0,0,0.00,0.00,0.00,0.00
2016-07-19 07:50:00,0,23438,0,0.00,0,0,0,0,11002,49632,13698,17342,0,0,0,0,0.00,0.00,0.00,0.00
2016-07-19 08:00:00,0,38747,0,0.00,0,0,0,0,8089,50000,15779,47950,0,0,0,0,0.00,0.00,0.00,0.00
2016-07-19 08:10:00,0,42708,49,0.52,0,0,0,0,20850,50000,10126,48363,0,61,24,61,0.00,2.65,0.81,0.12
2016-07-19 08:20:00,0,31100,60,0.62,0,0,0,0,10673,50000,13700,29980,51,61,3,61,0.00,2.50,0.78,0.25
2016-07-19 08:30:00,0,46992,55,0.49,0,0,0,0,42734,50000,2423,47117,51,61,5,51,0.00,3.10,0.90,0.10
2016-07-19 08:40:00,0,46705,15,0.03,0,0,0,0,33608,50000,5535,50000,0,51,23,0,0.00,0.25,0.08,0.00
2016-07-19 08:50:00,0,27339,0,0.00,0,0,0,0,17089,39862,7987,25912,0,0,0,0,0.00,0.00,0.00,0.00
2016-07-19 09:00:00,0,45095,0,0.00,0,0,0,0,28262,50000,7107,49211,0,0,0,0,0.00,0.00,0.00,0.00
2016-07-19 09:10:00,0,36849,0,0.00,0,0,0,0,28330,46909,5646,37493,0,0,0,0,0.00,0.00,0.00,0.00
2016-07-19 09:20:00,0,45395,0,0.00,0,0,0,0,39907,50000,3374,44853,0,0,0,0,0.00,0.00,0.00,0.00
2016-07-19 09:30:00,0,30615,0,0.00,0,0,0,0,10593,50000,10206,31248,0,0,0,0,0.00,0.00,0.00,0.00
2016-07-19 09:40:00,0,37418,0,0.00,0,0,0,0,20572,50000,10663,38384,0,0,0,0,0.00,0.00,0.00,0.00
2016-07-19 09:50:00,0,44303,0,0.00,0,0,0,0,31122,50000,6886,47890,0,0,0,0,0.00,0.00,0.00,0.00
2016-07-19 10:00:00,0,34807,0,0.00,0,0,0,0,18991,48562,7961,35116,0,0,0,0,0.00,0.00,0.00,0.00
2016-07-19 10:10:00,0,25285,0,0.00,0,0,0,0,12517,33775,6923,25578,0,0,0,0,0.00,0.00,0.00,0.00
2016-07-19 10:20:00,0,47926,0,0.00,0,0,0,0,44269,50000,1880,48216,0,0,0,0,0.00,0.00,0.00,0.00
2016-07-19 10:30:00,0,43356,0,0.00,0,0,0,0,31326,50000,5897,45888,0,0,0,0,0.00,0.00,0.00,0.00
2016-07-19 10:40:00,0,50000,0,0.00,0,0,0,0,50000,50000,0,50000,0,0,0,0,0.00,0.00,0.00,0.00
2016-07-19 10:50:00,0,44426,30,0.26,0,0,0,0,38846,50000,4017,46364,0,61,30,26,0.00,0.85,0.33,0.00
2016-07-19 11:00:00,0,34891,59,1.81,0,0,0,0,27654,48261,6581,32930,51,61,4,61,0.45,4.10,1.30,1.35
2016-07-19 11:10:00,0,50000,61,0.63,0,0,0,0,50000,50000,0,50000,61,61,0,61,0.05,2.30,0.82,0.30
2016-07-19 11:20:00,0,49858,52,0.22,0,0,0,0,48582,50000,425,50000,51,61,3,51,0.00,0.80,0.23,0.15
2016-07-19 11:30:00,0,32017,59,3.78,0,0,0,0,13252,50000,12605,30374,51,62,4,61,0.40,10.25,2.76,2.70
2016-07-19 11:40:00,0,41896,43,1.06,0,0,0,0,20773,50000,9980,45687,0,61,28,61,0.00,6.20,1.95,0.05
2016-07-19 11:50:00,0,46972,0,0.00,0,0,0,0,38735,50000,4462,49926,0,0,0,0,0.00,0.00,0.00,0.00
2016-07-19 12:00:00,0,49131,0,0.00,0,0,0,0,42094,50000,2357,50000,0,0,0,0,0.00,0.00,0.00,0.00
2016-07-19 12:10:00,0,42095,0,0.00,0,0,0,0,25610,50000,8921,45484,0,0,0,0,0.00,0.00,0.00,0.00
2016-07-19 12:20:00,0,45205,0,0.00,0,0,0,0,21224,50000,9165,50000,0,0,0,0,0.00,0.00,0.00,0.00
2016-07-19 12:30:00,0,43690,0,0.00,0,0,0,0,21133,50000,10218,49573,0,0,0,0,0.00,0.00,0.00,0.00
2016-07-19 12:40:00,0,49805,0,0.00,0,0,0,0,48927,50000,392,50000,0,0,0,0,0.00,0.00,0.00,0.00
2016-07-19 12:50:00,0,50000,0,0.00,0,0,0,0,50000,50000,0,50000,0,0,0,0,0.00,0.00,0.00,0.00
2016-07-19 13:00:00,0,50000,0,0.00,0,0,0,0,50000,50000,0,50000,0,0,0,0,0.00,0.00,0.00,0.00
2016-07-19 13:10:00,0,45856,30,0.85,0,0,0,0,34471,50000,5389,48878,0,61,30,30,0.00,3.90,1.24,0.00
2016-07-19 13:20:00,0,30288,61,6.47,0,0,0,0,15307,41312,7795,32550,61,62,0,61,2.70,29.05,7.56,4.07
2016-07-19 13:30:00,0,10580,62,30.99,0,0,0,0,7798,12905,1743,10658,61,63,0,62,8.90,65.05,13.76,30.08
2016-07-19 13:40:00,0,24205,61,10.41,0,0,0,0,10217,40405,10219,23417,61,62,0,61,0.50,36.40,12.66,2.45
2016-07-19 13:50:00,0,27460,61,3.75,0,0,0,0,17338,41631,8924,24828,61,61,0,61,0.20,7.65,2.60,3.85
2016-07-19 14:00:00,0,47318,6,0.00,0,0,0,0,42056,50000,2838,48444,0,61,18,0,0.00,0.00,0.00,0.00
2016-07-19 14:10:00,0,49830,0,0.00,0,0,0,0,49217,50000,258,50000,0,0,0,0,0.00,0.00,0.00,0.00
2016-07-19 14:20:00,0,49858,0,0.00,0,0,0,0,48585,50000,424,50000,0,0,0,0,0.00,0.00,0.00,0.00
2016-07-19 14:30:00,0,49882,0,0.00,0,0,0,0,49137,50000,266,50000,0,0,0,0,0.00,0.00,0.00,0.00
2016-07-19 14:40:00,0,49388,0,0.00,0,0,0,0,47314,50000,1009,50000,0,0,0,0,0.00,0.00,0.00,0.00
2016-07-19 14:50:00,0,47986,0,0.00,0,0,0,0,33569,50000,4931,50000,0,0,0,0,0.00,0.00,0.00,0.00
2016-07-19 15:00:00,0,26224,49,6.10,0,0,0,0,13011,49433,11516,26118,0,62,25,61,0.00,12.00,3.86,6.53
2016-07-19 15:10:00,0,15296,61,6.87,0,0,0,0,8040,20060,4258,17804,61,62,0,61,2.75,14.75,3.73,4.93
2016-07-19 15:20:00,0,34748,43,2.21,0,0,0,0,9865,50000,12877,39573,0,62,28,61,0.00,11.80,3.71,0.25
2016-07-19 15:30:00,0,49894,0,0.00,0,0,0,0,49185,50000,248,50000,0,0,0,0,0.00,0.00,0.00,0.00
2016-07-19 15:40:00,0,49592,0,0.00,0,0,0,0,47653,50000,793,50000,0,0,0,0,0.00,0.00,0.00,0.00
2016-07-19 15:50:00,0,35502,25,4.76,0,0,0,0,13092,50000,14862,37742,0,62,30,0,0.00,27.10,8.25,0.00
2016-07-19 16:00:00,0,31540,60,0.49,0,0,0,0,21570,45592,8924,28166,51,61,3,61,0.00,2.05,0.68,0.10
2016-07-19 16:10:00,0,47552,15,0.01,0,0,0,0,41968,50000,2601,48052,0,51,23,0,0.00,0.05,0.02,0.00
2016-07-19 16:20:00,0,49617,0,0.00,0,0,0,0,47551,50000,743,50000,0,0,0,0,0.00,0.00,0.00,0.00
2016-07-19 16:30:00,0,23968,49,3.38,0,0,0,0,13735,50000,10223,22430,0,61,24,61,0.00,9.25,3.39,1.95
2016-07-19 16:40:00,0,27150,18,0.15,0,0,0,0,17793,45115,9298,23045,0,61,28,0,0.00,1.35,0.40,0.00
2016-07-19 16:50:00,0,49216,0,0.00,0,0,0,0,46462,50000,1279,50000,0,0,0,0,0.00,0.00,0.00,0.00
2016-07-19 17:00:00,0,48054,0,0.00,0,0,0,0,45455,50000,1637,48174,0,0,0,0,0.00,0.00,0.00,0.00
2016-07-19 17:10:00,0,44006,0,0.00,0,0,0,0,38605,47297,2534,44452,0,0,0,0,0.00,0.00,0.00,0.00
2016-07-19 17:20:00,0,42417,0,0.00,0,0,0,0,35575,50000,5094,41038,0,0,0,0,0.00,0.00,0.00,0.00
2016-07-19 17:30:00,0,37303,0,0.00,0,0,0,0,34026,44092,2764,36756,0,0,0,0,0.00,0.00,0.00,0.00
2016-07-19 17:40:00,0,28315,0,0.00,0,0,0,0,21715,35407,4868,27702,0,0,0,0,0.00,0.00,0.00,0.00
2016-07-19 17:50:00,0,34781,0,0.00,0,0,0,0,28014,39954,4090,33581,0,0,0,0,0.00,0.00,0.00,0.00
2016-07-19 18:00:00,0,27818,0,0.00,0,0,0,0,22829,30835,2344,27605,0,0,0,0,0.00,0.00,0.00,0.00
2016-07-19 18:10:00,0,24426,0,0.00,0,0,0,0,19352,28936,3070,24458,0,0,0,0,0.00,0.00,0.00,0.00
2016-07-19 18:20:00,0,15427,0,0.00,0,0,0,0,13988,16549,726,15346,0,0,0,0,0.00,0.00,0.00,0.00
2016-07-19 18:30:00,0,16362,0,0.00,0,0,0,0,13612,18320,1447,16744,0,0,0,0,0.00,0.00,0.00,0.00
2016-07-19 18:40:00,0,25283,0,0.00,0,0,0,0,20062,33423,3826,24656,0,0,0,0,0.00,0.00,0.00,0.00
2016-07-19 18:50:00,0,25284,0,0.00,0,0,0,0,20858,30613,3448,26344,0,0,0,0,0.00,0.00,0.00,0.00
2016-07-19 19:00:00,0,29295,0,0.00,0,0,0,0,23686,38232,4789,28492,0,0,0,0,0.00,0.00,0.00,0.00
2016-07-19 19:10:00,0,44090,0,0.00,0,0,0,0,31182,50000,6422,46626,0,0,0,0,0.00,0.00,0.00,0.00
2016-07-19 19:20:00,0,49959,0,0.00,0,0,0,0,49594,50000,122,50000,0,0,0,0,0.00,0.00,0.00,0.00
2016-07-19 19:30:00,0,49798,0,0.00,0,0,0,0,48235,50000,526,50000,0,0,0,0,0.00,0.00,0.00,0.00
2016-07-19 19:40:00,0,49883,0,0.00,0,0,0,0,48831,50000,351,50000,0,0,0,0,0.00,0.00,0.00,0.00
2016-07-19 19:50:00,0,50000,0,0.00,0,0,0,0,50000,50000,0,50000,0,0,0,0,0.00,0.00,0.00,0.00
2016-07-19 20:00:00,0,49965,0,0.00,0,0,0,0,49651,50000,105,50000,0,0,0,0,0.00,0.00,0.00,0.00
2016-07-19 20:10:00,0,49515,22,0.03,0,0,0,0,45960,50000,1209,50000,0,61,28,0,0.00,0.20,0.06,0.00
2016-07-19 20:20:00,0,23801,50,1.72,0,0,0,0,14773,36108,5622,22312,0,61,17,52,0.00,7.30,1.97,1.38
2016-07-19 20:30:00,0,48137,5,0.00,0,0,0,0,35892,50000,4299,50000,0,52,16,0,0.00,0.00,0.00,0.00
2016-07-19 20:40:00,0,47478,17,0.02,0,0,0,0,35028,50000,4725,49934,0,61,27,0,0.00,0.10,0.03,0.00
2016-07-19 20:50:00,0,50000,0,0.00,0,0,0,0,50000,50000,0,50000,0,0,0,0,0.00,0.00,0.00,0.00
2016-07-19 21:00:00,0,49495,0,0.00,0,0,0,0,47572,50000,932,50000,0,0,0,0,0.00,0.00,0.00,0.00
2016-07-19 21:10:00,0,48284,0,0.00,0,0,0,0,41300,50000,3083,50000,0,0,0,0,0.00,0.00,0.00,0.00
2016-07-19 21:20:00,0,49844,0,0.00,0,0,0,0,48440,50000,468,50000,0,0,0,0,0.00,0.00,0.00,0.00
2016-07-19 21:30:00,0,49528,0,0.00,0,0,0,0,46953,50000,923,50000,0,0,0,0,0.00,0.00,0.00,0.00
2016-07-19 21:40:00,0,50000,0,0.00,0,0,0,0,50000,50000,0,50000,0,0,0,0,0.00,0.00,0.00,0.00
2016-07-19 21:50:00,0,50000,0,0.00,0,0,0,0,50000,50000,0,50000,0,0,0,0,0.00,0.00,0.00,0.00
2016-07-19 22:00:00,0,50000,0,0.00,0,0,0,0,50000,50000,0,50000,0,0,0,0,0.00,0.00,0.00,0.00
2016-07-19 22:10:00,0,48451,0,0.00,0,0,0,0,43814,50000,2056,49349,0,0,0,0,0.00,0.00,0.00,0.00
2016-07-19 22:20:00,0,48899,0,0.00,0,0,0,0,43169,50000,2038,50000,0,0,0,0,0.00,0.00,0.00,0.00
2016-07-19 22:30:00,0,49996,0,0.00,0,0,0,0,49961,50000,12,50000,0,0,0,0,0.00,0.00,0.00,0.00
2016-07-19 22:40:00,0,49932,0,0.00,0,0,0,0,49441,50000,168,50000,0,0,0,0,0.00,0.00,0.00,0.00
2016-07-19 22:50:00,0,49659,0,0.00,0,0,0,0,47195,50000,841,50000,0,0,0,0,0.00,0.00,0.00,0.00
2016-07-19 23:00:00,0,50000,0,0.00,0,0,0,0,50000,50000,0,50000,0,0,0,0,0.00,0.00,0.00,0.00
2016-07-19 23:10:00,0,49818,0,0.00,0,0,0,0,48443,50000,465,50000,0,0,0,0,0.00,0.00,0.00,0.00
2016-07-19 23:20:00,0,49137,0,0.00,0,0,0,0,45609,50000,1601,50000,0,0,0,0,0.00,0.00,0.00,0.00
2016-07-19 23:30:00,0,49887,0,0.00,0,0,0,0,48870,50000,339,50000,0,0,0,0,0.00,0.00,0.00,0.00
2016-07-19 23:40:00,0,49831,0,0.00,0,2,1,0,49143,50000,337,50000,0,0,0,0,0.00,0.00,0.00,0.00
2016-07-19 23:50:00,0,48744,0,0.00,0,0,0,0,41521,50000,2537,50000,0,0,0,0,0.00,0.00,0.00,0.00
